Location: Mahannah Oil Field
(37.4664°N, 96.6003°W)
Time: 15:43:59
(UTC+00:00)

Vanguard 2 Rocket - Pass Details

Date: 23 January 2021
Orbit: 554 x 3325 km, 32.9° (Epoch: 06 March)

Event Time Altitude Azimuth Distance (km) Brightness Sun altitude
Rises 20:34:11 0° 229° (SW) 7,019 12.6 27.1°
Reaches altitude 10° 20:39:39 10° 224° (SW) 5,711 12.6 26.5°
Maximum altitude 20:54:18 43° 160° (SSE) 2,655 10.0 24.9°
Drops below altitude 10° 21:03:10 10° 92° (E) 3,534 9.7 23.9°
Sets 21:05:42 0° 85° (E) 4,211 9.9 23.5°
